Cordova, AK

1:46 PM AKDT on March 30, 2017 (GMT -0800)
Cordova-Smith

Weather History for PACV - February, 2013

Change the Weather History Date:

Sunday, February 3, 2013

  Actual Average Record
Temperature  
Mean Temperature 38 °F -  
Max Temperature 42 °F 32 °F 46 °F (1957)
Min Temperature 35 °F 17 °F -17 °F (1968)
Degree Days  
Heating Degree Days 26    
Moisture  
Dew Point 33 °F    
Average Humidity 83    
Maximum Humidity 93    
Minimum Humidity 70    
Precipitation  
Precipitation 0.33 in - - ()
Sea Level Pressure  
Sea Level Pressure 29.44 in    
Wind  
Wind Speed 10 mph (East)    
Max Wind Speed 22 mph    
Max Gust Speed 31 mph    
Visibility 9 miles    
Events Rain    
Averages and records for this station are not official NWS values.
T = Trace of Precipitation, MM = Missing Value Source: NWS Daily Summary

Daily Weather History Graph

Daily Weather History Graph

Search for Another Location

Airport or City:

Trip Planner

Search our weather history database for the weather conditions in past years. The results will help you decide how hot, cold, wet, or windy it might be!

Date:

Astronomy

Feb. 03, 2013 Rise Set
Actual Time 8:52 AM AKST 5:00 PM AKST
Civil Twilight 8:04 AM AKST 5:47 PM AKST
Nautical Twilight 7:13 AM AKST 6:38 PM AKST
Astronomical Twilight 6:24 AM AKST 7:28 PM AKST
Moon 2:39 AM AKST (2/3) 10:30 AM AKST (2/3)
Length of Visible Light 9h 43m
Length of Day
8h 08m
Waning Gibbous, 47% of the Moon is Illuminated
Feb 3
Waning Gibbous
Feb 9
New
Feb 17
First Quarter
Feb 25
Full
Mar 4
Last Quarter

Hourly Weather History & Observations

Time (AKST) Temp. Windchill Dew Point Humidity Pressure Visibility Wind Dir Wind Speed Gust Speed Precip Events Conditions
12:53 AM 41.0 °F 35.8 °F 34.0 °F 76% 29.46 in 10.0 mi East 8.1 mph 19.6 mph 0.01 in Rain Light Rain
1:53 AM 42.1 °F 35.2 °F 33.1 °F 70% 29.44 in 10.0 mi ESE 12.7 mph 24.2 mph 0.00 in Rain Light Rain
3:53 AM 42.1 °F 34.5 °F 33.1 °F 70% 29.38 in 10.0 mi ESE 15.0 mph 21.9 mph 0.00 in Rain Light Rain
4:53 AM 41.0 °F 31.9 °F 33.1 °F 73% 29.36 in 10.0 mi ESE 19.6 mph 29.9 mph 0.01 in Rain Light Rain
5:53 AM 42.1 °F 34.9 °F 33.1 °F 70% 29.33 in 10.0 mi ESE 13.8 mph 21.9 mph 0.00 in Rain Light Rain
6:53 AM 42.1 °F 34.9 °F 33.1 °F 70% 29.31 in 10.0 mi East 13.8 mph 21.9 mph 0.00 in Rain Light Rain
7:53 AM 41.0 °F 35.8 °F 33.1 °F 73% 29.30 in 10.0 mi East 8.1 mph 23.0 mph 0.01 in Rain Light Rain
8:53 AM 41.0 °F 33.1 °F 33.1 °F 73% 29.30 in 10.0 mi ESE 15.0 mph 31.1 mph 0.00 in Rain Light Rain
9:53 AM 41.0 °F 31.4 °F 33.1 °F 73% 29.29 in 10.0 mi ESE 21.9 mph 27.6 mph 0.01 in Rain Light Rain
10:53 AM 39.9 °F 33.4 °F 33.1 °F 77% 29.31 in 10.0 mi East 10.4 mph 19.6 mph 0.01 in Rain Light Rain
11:53 AM 39.0 °F 32.8 °F 33.1 °F 79% 29.32 in 10.0 mi ESE 9.2 mph - 0.00 in Rain Light Rain
12:53 PM 39.0 °F 32.8 °F 33.1 °F 79% 29.35 in 10.0 mi ESE 9.2 mph 17.3 mph 0.00 in   Overcast
1:53 PM 37.0 °F 32.4 °F 33.1 °F 86% 29.38 in 7.0 mi East 5.8 mph - 0.02 in Rain Light Rain
2:53 PM 36.0 °F 29.0 °F 33.1 °F 89% 29.41 in 9.0 mi East 9.2 mph - 0.03 in Rain Light Rain
3:18 PM 35.6 °F 29.2 °F 33.8 °F 93% 29.42 in 9.0 mi East 8.1 mph - 0.02 in Rain Light Rain
3:53 PM 35.1 °F 29.3 °F 33.1 °F 92% 29.44 in 4.0 mi ENE 6.9 mph - 0.07 in Rain Light Rain
4:30 PM 35.6 °F 30.7 °F 33.8 °F 93% 29.46 in 5.0 mi East 5.8 mph - 0.04 in Rain Rain
4:53 PM 35.1 °F 29.3 °F 33.1 °F 92% 29.47 in 8.0 mi ENE 6.9 mph - 0.06 in Rain Light Rain
5:53 PM 35.1 °F 31.0 °F 33.1 °F 92% 29.49 in 5.0 mi East 4.6 mph - 0.05 in Rain Light Rain
6:53 PM 36.0 °F 32.1 °F 34.0 °F 93% 29.52 in 6.0 mi ESE 4.6 mph - 0.01 in Rain Rain
7:53 PM 36.0 °F 33.3 °F 34.0 °F 93% 29.54 in 10.0 mi ESE 3.5 mph - 0.01 in Rain Light Rain
8:53 PM 36.0 °F 33.3 °F 34.0 °F 93% 29.57 in 10.0 mi East 3.5 mph - 0.01 in   Overcast
9:53 PM 35.1 °F - 33.1 °F 92% 29.60 in 10.0 mi Calm Calm - 0.01 in   Overcast
10:53 PM 35.1 °F 31.0 °F 33.1 °F 92% 29.61 in 10.0 mi East 4.6 mph - 0.01 in   Overcast
11:40 PM 35.6 °F 30.7 °F 33.8 °F 93% 29.63 in 10.0 mi East 5.8 mph - N/A   Mostly Cloudy
11:53 PM 35.1 °F 32.2 °F 33.1 °F 92% 29.64 in 8.0 mi East 3.5 mph - 0.00 in Rain Light Rain